Storm Lake, IA

8:17 AM CST on November 24, 2017 (GMT -0600)
Storm Lake Municipal

Weather History for KSLB - January, 2013

Change the Weather History Date:

Wednesday, January 23, 2013

  Actual Average Record
Temperature  
Mean Temperature 10 °F -  
Max Temperature 21 °F 26 °F 51 °F (2004)
Min Temperature -2 °F 11 °F -11 °F (2003)
Degree Days  
Heating Degree Days 56    
Moisture  
Dew Point 4 °F    
Average Humidity 72    
Maximum Humidity 86    
Minimum Humidity 55    
Precipitation  
Precipitation 0.00 in - - ()
Sea Level Pressure  
Sea Level Pressure 30.25 in    
Wind  
Wind Speed 14 mph (NW)    
Max Wind Speed 24 mph    
Max Gust Speed 32 mph    
Visibility 10 miles    
Events Snow    
Averages and records for this station are not official NWS values.
T = Trace of Precipitation, MM = Missing Value Source: NWS Daily Summary

Daily Weather History Graph

Daily Weather History Graph

Search for Another Location

Airport or City:

Trip Planner

Search our weather history database for the weather conditions in past years. The results will help you decide how hot, cold, wet, or windy it might be!

Date:

Astronomy

Jan. 23, 2013 Rise Set
Actual Time 7:43 AM CST 5:23 PM CST
Civil Twilight 7:12 AM CST 5:53 PM CST
Nautical Twilight 6:38 AM CST 6:28 PM CST
Astronomical Twilight 6:04 AM CST 7:01 PM CST
Moon 2:33 PM CST (1/23) 4:56 AM CST (1/23)
Length of Visible Light 10h 41m
Length of Day
9h 40m
Waxing Gibbous, 89% of the Moon is Illuminated
Jan 23
Waxing Gibbous
Jan 26
Full
Feb 3
Last Quarter
Feb 10
New
Feb 17
First Quarter

Hourly Weather History & Observations

Time (CST) Temp. Windchill Dew Point Humidity Pressure Visibility Wind Dir Wind Speed Gust Speed Precip Events Conditions
12:15 AM 14.0 °F -1.4 °F 5.0 °F 67% 30.17 in 10.0 mi SSW 15.0 mph - N/A   Overcast
12:35 AM 14.0 °F -1.4 °F 5.0 °F 67% 30.15 in 10.0 mi SSW 15.0 mph - N/A   Overcast
12:55 AM 14.0 °F -0.8 °F 6.8 °F 73% 30.14 in 10.0 mi SSW 13.8 mph - N/A   Overcast
1:35 AM 14.0 °F -0.2 °F 6.8 °F 73% 30.14 in - SSW 12.7 mph - N/A   Overcast
1:55 AM 12.2 °F -1.8 °F 6.8 °F 79% 30.13 in 10.0 mi SSW 11.5 mph - N/A   Overcast
2:15 AM 12.2 °F -1.0 °F 5.0 °F 73% 30.13 in 10.0 mi SSW 10.4 mph - N/A   Overcast
2:35 AM 10.4 °F -2.4 °F 3.2 °F 73% 30.13 in 10.0 mi SSW 9.2 mph - N/A   Scattered Clouds
2:55 AM 8.6 °F -4.7 °F 3.2 °F 79% 30.12 in 10.0 mi South 9.2 mph - N/A   Clear
3:55 AM 10.4 °F -4.8 °F 5.0 °F 79% 30.10 in 10.0 mi SSW 12.7 mph - N/A   Clear
4:15 AM 12.2 °F -1.8 °F 5.0 °F 73% 30.09 in 10.0 mi SSW 11.5 mph - N/A   Clear
4:35 AM 12.2 °F -1.8 °F 5.0 °F 73% 30.08 in 10.0 mi SW 11.5 mph - N/A   Clear
4:55 AM 12.2 °F -1.8 °F 5.0 °F 73% 30.09 in 10.0 mi SW 11.5 mph - N/A   Clear
5:15 AM 12.2 °F -2.5 °F 5.0 °F 73% 30.09 in 10.0 mi SW 12.7 mph - N/A   Clear
5:35 AM 12.2 °F -1.0 °F 5.0 °F 73% 30.10 in 10.0 mi WSW 10.4 mph - N/A   Clear
5:55 AM 10.4 °F -1.5 °F 5.0 °F 79% 30.11 in 10.0 mi West 8.1 mph - N/A   Clear
6:15 AM 10.4 °F -1.5 °F 5.0 °F 79% 30.11 in 10.0 mi West 8.1 mph - N/A   Clear
6:35 AM 8.6 °F -5.5 °F 5.0 °F 85% 30.12 in 10.0 mi West 10.4 mph - N/A   Clear
6:55 AM 10.4 °F -4.1 °F 5.0 °F 79% 30.11 in 10.0 mi West 11.5 mph - N/A   Clear
7:15 AM 8.6 °F -6.3 °F 5.0 °F 85% 30.12 in 10.0 mi West 11.5 mph - N/A   Clear
7:35 AM 8.6 °F -7.0 °F 5.0 °F 85% 30.12 in 10.0 mi West 12.7 mph - N/A   Clear
7:55 AM 10.4 °F -4.1 °F 5.0 °F 79% 30.13 in 10.0 mi WNW 11.5 mph - N/A   Clear
8:15 AM 12.2 °F -2.5 °F 6.8 °F 79% 30.12 in 10.0 mi NW 12.7 mph - N/A   Clear
8:35 AM 12.2 °F -3.7 °F 8.6 °F 85% 30.13 in 10.0 mi NW 15.0 mph - N/A   Clear
8:55 AM 14.0 °F -2.0 °F 8.6 °F 79% 30.14 in 10.0 mi NNW 16.1 mph - N/A   Clear
9:15 AM 12.2 °F -3.1 °F 8.6 °F 85% 30.15 in 10.0 mi NNW 13.8 mph - N/A   Clear
9:35 AM 14.0 °F 0.5 °F 10.4 °F 86% 30.16 in 10.0 mi NNW 11.5 mph - N/A   Clear
9:55 AM 15.8 °F 0.9 °F 10.4 °F 79% 30.17 in 10.0 mi NNW 15.0 mph - N/A   Clear
10:15 AM 17.6 °F 2.2 °F 10.4 °F 73% 30.18 in 10.0 mi North 17.3 mph 23.0 mph N/A   Clear
10:35 AM 17.6 °F 2.7 °F 12.2 °F 79% 30.19 in 10.0 mi NNW 16.1 mph - N/A   Clear
10:55 AM 17.6 °F 3.2 °F 12.2 °F 79% 30.20 in 10.0 mi NNW 15.0 mph - N/A   Clear
11:15 AM 19.4 °F 5.5 °F 12.2 °F 74% 30.21 in 10.0 mi NNW 15.0 mph - N/A   Partly Cloudy
11:35 AM 19.4 °F 5.5 °F 12.2 °F 74% 30.22 in 10.0 mi NNW 15.0 mph - N/A   Mostly Cloudy
11:55 AM 19.4 °F 5.0 °F 12.2 °F 74% 30.22 in 10.0 mi NW 16.1 mph - N/A   Mostly Cloudy
12:15 PM 19.4 °F 6.0 °F 14.0 °F 80% 30.22 in 9.0 mi NNW 13.8 mph - N/A   Mostly Cloudy
12:35 PM 21.2 °F 7.8 °F 14.0 °F 74% 30.22 in 10.0 mi NW 15.0 mph - N/A   Mostly Cloudy
12:55 PM 21.2 °F 8.9 °F 14.0 °F 74% 30.22 in 10.0 mi NW 12.7 mph 19.6 mph N/A   Scattered Clouds
1:15 PM 21.2 °F 6.8 °F 14.0 °F 74% 30.22 in 10.0 mi NW 17.3 mph - N/A   Mostly Cloudy
1:35 PM 21.2 °F 6.4 °F 14.0 °F 74% 30.23 in 9.0 mi NW 18.4 mph - N/A   Mostly Cloudy
1:55 PM 21.2 °F 6.8 °F 14.0 °F 74% 30.23 in 9.0 mi NW 17.3 mph 24.2 mph N/A Snow Light Snow
2:15 PM 21.2 °F 6.4 °F 12.2 °F 68% 30.23 in 10.0 mi North 18.4 mph - N/A Snow Light Snow
2:35 PM 21.2 °F 6.4 °F 14.0 °F 74% 30.24 in 8.0 mi NNW 18.4 mph - N/A Snow Light Snow
2:55 PM 19.4 °F 3.6 °F 12.2 °F 74% 30.25 in 9.0 mi NNW 19.6 mph - N/A Snow Light Snow
3:15 PM 19.4 °F 2.8 °F 10.4 °F 68% 30.25 in 10.0 mi North 21.9 mph - N/A   Partly Cloudy
3:35 PM 19.4 °F 3.6 °F 10.4 °F 68% 30.26 in 10.0 mi North 19.6 mph 26.5 mph N/A   Mostly Cloudy
3:55 PM 17.6 °F 0.5 °F 10.4 °F 73% 30.27 in 9.0 mi NNW 21.9 mph - N/A Snow Light Snow
4:15 PM 17.6 °F 0.9 °F 6.8 °F 63% 30.28 in 10.0 mi North 20.7 mph 26.5 mph N/A   Scattered Clouds
4:35 PM 15.8 °F -0.6 °F 6.8 °F 68% 30.31 in 10.0 mi North 18.4 mph - N/A   Mostly Cloudy
4:55 PM 14.0 °F -3.0 °F 5.0 °F 67% 30.32 in 10.0 mi North 18.4 mph 26.5 mph N/A   Mostly Cloudy
5:15 PM 14.0 °F -2.5 °F 3.2 °F 62% 30.33 in 10.0 mi North 17.3 mph - N/A   Partly Cloudy
5:35 PM 12.2 °F -3.1 °F 3.2 °F 67% 30.34 in 10.0 mi North 13.8 mph 23.0 mph N/A   Clear
5:55 PM 10.4 °F -7.7 °F 1.4 °F 67% 30.36 in 10.0 mi North 18.4 mph - N/A   Clear
6:15 PM 8.6 °F -9.5 °F -0.4 °F 67% 30.37 in 10.0 mi North 17.3 mph 26.5 mph N/A   Clear
6:35 PM 6.8 °F -11.8 °F -0.4 °F 72% 30.38 in 10.0 mi North 17.3 mph - N/A   Clear
6:55 PM 6.8 °F -12.4 °F -2.2 °F 67% 30.39 in 10.0 mi North 18.4 mph 25.3 mph N/A   Clear
7:15 PM 5.0 °F -15.2 °F -4.0 °F 66% 30.39 in 10.0 mi North 19.6 mph 25.3 mph N/A   Clear
7:35 PM 3.2 °F -17.6 °F -5.8 °F 66% 30.41 in 10.0 mi North 19.6 mph 29.9 mph N/A   Clear
7:55 PM 3.2 °F -19.5 °F -5.8 °F 66% 30.40 in 10.0 mi North 24.2 mph 31.1 mph N/A   Clear
8:15 PM 1.4 °F -20.5 °F -9.4 °F 61% 30.41 in 10.0 mi North 20.7 mph 32.2 mph N/A   Clear
8:35 PM 1.4 °F -21.0 °F -7.6 °F 66% 30.42 in 10.0 mi North 21.9 mph - N/A   Clear
8:55 PM 1.4 °F -18.8 °F -9.4 °F 61% 30.43 in 10.0 mi North 17.3 mph 24.2 mph N/A   Clear
9:15 PM 1.4 °F -16.9 °F -9.4 °F 61% 30.43 in 10.0 mi North 13.8 mph 19.6 mph N/A   Clear
9:35 PM -0.4 °F -21.7 °F -11.2 °F 60% 30.43 in 10.0 mi North 18.4 mph 25.3 mph N/A   Clear
9:55 PM -0.4 °F -20.5 °F -11.2 °F 60% 30.44 in 10.0 mi North 16.1 mph 25.3 mph N/A   Clear
10:15 PM -0.4 °F -19.9 °F -11.2 °F 60% 30.45 in 10.0 mi North 15.0 mph 26.5 mph N/A   Clear
10:35 PM -0.4 °F -21.2 °F -11.2 °F 60% 30.46 in 10.0 mi North 17.3 mph 24.2 mph N/A   Clear
10:55 PM -0.4 °F -22.3 °F -11.2 °F 60% 30.47 in 10.0 mi NNE 19.6 mph - N/A   Clear
11:15 PM -0.4 °F -21.7 °F -13.0 °F 55% 30.49 in 10.0 mi NNE 18.4 mph - N/A   Clear
11:35 PM -2.2 °F -23.5 °F -11.2 °F 66% 30.49 in 10.0 mi NNE 17.3 mph - N/A   Clear
11:55 PM -2.2 °F -22.9 °F -13.0 °F 60% 30.50 in 10.0 mi NNE 16.1 mph - N/A   Clear